Preview of NWS' New Version of Forecast
This preview is not operational and should not be used for support decisions.

Regional Weather Roundup (RWR)

Issued by National Weather Service (NWS)

                            
000
ASUS45 KABQ 231701
RWRNM 
NEW MEXICO REGIONAL WEATHER ROUNDUP
NATIONAL WEATHER SERVICE ALBUQUERQUE NM
1100 AM MDT SAT MAR 23 2019

NOTE: "FAIR" MEANS FEW OR NO CLOUDS BELOW 12,000 FEET AGL WITH NO
       SIGNIFICANT WEATHER OR OBSTRUCTIONS TO VISION.

      THIS PRODUCT IS RELEASED AS TWO VERSIONS.  ONE VERSION NEAR
      THE TOP OF THE HOUR CONTAINING PRELIMINARY DATA FROM ALBUQUERQUE
      AND OTHER STATIONS.  A FINAL VERSION WITH ADDITIONAL DATA IS 
      ISSUED ABOUT 10 MINUTES AFTER THE HOUR.
 
NMZ501-503-504-510>518-231800-
NORTHWEST PLATEAU/NORTHCENTRAL MOUNTAINS
  
CITY           SKY/WX    TMP DP  RH WIND       PRES   REMARKS
FARMINGTON     FAIR      46  32  58 W10       30.14S                  
LOS ALAMOS     FAIR      40  28  62 N3        30.14F                  
SANTA FE       FAIR      47  26  44 N10       30.11S                  
TAOS           PTSUNNY   41  28  60 SW14G22   30.14F                  
ANGEL FIRE       N/A     32  24  72 W9G24     30.11S WCI  24          

$$
NMZ402-403-502-505>509-231800-
WESTCENTRAL MOUNTAINS/SOUTHWEST MOUNTAINS
  
CITY           SKY/WX    TMP DP  RH WIND       PRES   REMARKS
GALLUP         FAIR      46  30  53 W7        30.16F                  
GRANTS         FAIR      45  26  48 NW3       30.18S                  
SILVER CITY    FAIR      54  22  29 CALM      30.16S                  

$$
NMZ407-409-411-412-231800-
SOUTHERN DESERTS
  
CITY           SKY/WX    TMP DP  RH WIND       PRES   REMARKS
DEMING         FAIR      57  24  28 S6        30.15F                  
LAS CRUCES     FAIR      60  24  25 CALM      30.16S                  
ALAMOGORDO     FAIR      59  25  27 N8G17     30.14F                  
T OR C         FAIR      59  24  26 VRB3      30.13F                  

$$
NMZ519>523-231800-
CENTRAL VALLEYS/CENTRAL HIGHLANDS
  
CITY           SKY/WX    TMP DP  RH WIND       PRES   REMARKS
ALBUQUERQUE    PTSUNNY   50  28  42 W3        30.15S                  
DOUBLE EAGLE   PTSUNNY   48  27  43 NW7       30.15F                  
MORIARTY ARPT  FAIR      51  28  40 NW20G28   30.11S                  
CLINES CORNERS FAIR      45  26  47 NW23G38   30.09R                  
BELEN          FAIR      53  24  32 W10G16    30.14F                  
SOCORRO        NOT AVBL                                               

$$
NMZ524>526-539-540-231800-
SOUTHCENTRAL MOUNTAINS
  
CITY           SKY/WX    TMP DP  RH WIND       PRES   REMARKS
RUIDOSO        FAIR      48  19  32 N16G22    30.17S                  

$$
NMZ527>531-231800-
NORTHEAST HIGHLANDS/NORTHEAST PLAINS
  
CITY           SKY/WX    TMP DP  RH WIND       PRES   REMARKS
LAS VEGAS      FAIR      48  21  34 SE10      30.02S                  
RATON          FAIR      49  22  34 E9        29.95F                  
CLAYTON        FAIR      55  25  31 VRB6      29.95F                  

$$
NMZ532>537-231800-
EASTCENTRAL PLAINS
  
CITY           SKY/WX    TMP DP  RH WIND       PRES   REMARKS
SANTA ROSA     FAIR      54  26  33 W7        30.03F                  
TUCUMCARI      FAIR      61  25  25 W15       29.98F                  
CANNON AFB     NOT AVBL                                               
CLOVIS AIRPORT   N/A     58  30  34 W15       30.04R                  

$$
NMZ028-029-538-231800-
SOUTHEAST PLAINS
  
CITY           SKY/WX    TMP DP  RH WIND       PRES   REMARKS
ROSWELL        FAIR      63  23  21 CALM      30.07S                  
ARTESIA        FAIR      63  21  20 VRB6G12   30.08S                  
CARLSBAD       FAIR      64  22  20 SE8       30.06F                  
HOBBS          SUNNY     64  23  20 NW14      30.08S                  


$$